Location: Banff
(51.1667°N, 115.5667°W)
Time: 21:47:11
(UTC+00:00)

SR - Visible Passes

Search period start: 28 November 2021 00:00
Search period end: 08 December 2021 00:00
Orbit: 583 x 871 km, 66.7° (Epoch: 28 November)

Date Brightness Start Highest point End Pass type
(mag) Time Alt. Az. Time Alt. Az. Time Alt. Az.
28 Nov ? 13:02:44 10° N 13:03:08 10° N 13:03:38 10° N visible
29 Nov ? 13:54:27 10° N 13:56:31 13° NNE 13:58:35 10° NE visible
30 Nov ? 13:05:03 10° N 13:06:00 11° N 13:07:08 10° NNE visible
01 Dec ? 13:56:27 10° NNW 13:59:16 17° NNE 14:02:06 10° ENE visible
02 Dec ? 13:07:23 11° N 13:08:50 13° NNE 13:10:49 10° NE visible
03 Dec ? 12:18:51 11° NNE 12:18:51 11° NNE 12:19:21 10° NNE visible
03 Dec ? 13:58:27 10° NNW 14:01:54 23° NNE 14:05:24 10° E visible
04 Dec ? 13:09:44 13° N 13:11:36 16° NNE 13:14:22 10° ENE visible
05 Dec ? 12:21:14 12° NNE 12:21:14 12° NNE 12:23:02 10° NE visible
05 Dec ? 14:00:38 11° NNW 14:04:26 34° NE 14:08:28 10° ESE visible
06 Dec ? 13:12:09 16° N 13:14:14 22° NNE 13:17:42 10° E visible
07 Dec ? 12:23:42 16° NNE 12:23:54 16° NNE 12:26:36 10° ENE visible
07 Dec ? 14:03:05 13° NNW 14:06:50 55° NE 14:11:13 10° SE visible
